Weather History for Woodward, OK

Change the Weather History Date:

Thursday, January 30, 2014

  Actual Average (KGAG) Record (KGAG)
Temperature  
Mean Temperature 45 °F -  
Max Temperature 57 °F 49 °F 72 °F (1967)
Min Temperature 33 °F 21 °F -7 °F (1949)
Degree Days  
Heating Degree Days 20    
Moisture  
Dew Point 18 °F    
Average Humidity 39    
Maximum Humidity 70    
Minimum Humidity 25    
Precipitation  
Precipitation 0.00 in - - ()
Sea Level Pressure  
Sea Level Pressure 29.72 in    
Wind  
Wind Speed 20 mph (SE)    
Max Wind Speed 28 mph    
Max Gust Speed 39 mph    
Visibility 10 miles    
Events      
Averages and records for this station are not official NWS values.
T = Trace of Precipitation, MM = Missing Value Source: NWS Daily Summary

Daily Weather History Graph

Daily Weather History Graph

Search for Another Location

Airport:

Trip Planner

Search our weather history database for the weather conditions in past years. The results will help you decide how hot, cold, wet, or windy it might be!

Date:

Astronomy

Jan. 30, 2014 Rise Set
Actual Time 7:41 AM CST 6:02 PM CST
Civil Twilight 7:13 AM CST 6:29 PM CST
Nautical Twilight 6:42 AM CST 7:00 PM CST
Astronomical Twilight 6:12 AM CST 7:30 PM CST
Moon 7:09 AM CST (1/30) 6:14 PM CST (1/30)
Length of Visible Light 11h 15m
Length of Day
10h 21m
Waning Crescent, 0% of the Moon is Illuminated
Jan 30
Waning Crescent
Jan 30
New
Feb 6
First Quarter
Feb 14
Full
Feb 22
Last Quarter

Hourly Weather History & Observations

Time (CST) Temp. Windchill Dew Point Humidity Pressure Visibility Wind Dir Wind Speed Gust Speed Precip Events Conditions
12:15 AM 37.4 °F 25.6 °F 5.0 °F 26% 29.77 in 10.0 mi South 26.5 mph 36.8 mph N/A   Clear
12:35 AM 37.4 °F 25.4 °F 6.8 °F 28% 29.75 in 10.0 mi South 27.6 mph 35.7 mph N/A   Clear
12:55 AM 37.4 °F 25.6 °F 6.8 °F 28% 29.73 in 10.0 mi South 26.5 mph 36.8 mph N/A   Clear
1:15 AM 37.4 °F 25.4 °F 6.8 °F 28% 29.70 in 10.0 mi South 27.6 mph 38.0 mph N/A   Clear
1:35 AM 37.4 °F 25.4 °F 6.8 °F 28% 29.70 in 10.0 mi South 27.6 mph 39.1 mph N/A   Clear
1:55 AM 35.6 °F 23.0 °F 8.6 °F 33% 29.68 in 10.0 mi South 27.6 mph 38.0 mph N/A   Clear
2:15 AM 35.6 °F 23.2 °F 8.6 °F 33% 29.67 in 10.0 mi South 26.5 mph 35.7 mph N/A   Clear
2:35 AM 35.6 °F 24.2 °F 8.6 °F 33% 29.65 in 10.0 mi South 21.9 mph 32.2 mph N/A   Clear
2:55 AM 35.6 °F 23.4 °F 8.6 °F 33% 29.65 in 10.0 mi South 25.3 mph 32.2 mph N/A   Clear
3:15 AM 35.6 °F 23.4 °F 8.6 °F 33% 29.64 in 10.0 mi SSW 25.3 mph 32.2 mph N/A   Clear
3:35 AM 35.6 °F 23.4 °F 8.6 °F 33% 29.63 in 10.0 mi SSW 25.3 mph 33.4 mph N/A   Clear
3:55 AM 35.6 °F 23.2 °F 8.6 °F 33% 29.62 in 10.0 mi SSW 26.5 mph 34.5 mph N/A   Clear
4:15 AM 35.6 °F 24.2 °F 8.6 °F 33% 29.62 in 10.0 mi South 21.9 mph 33.4 mph N/A   Clear
4:35 AM 35.6 °F 24.0 °F 8.6 °F 33% 29.61 in 10.0 mi SSW 23.0 mph 32.2 mph N/A   Clear
4:55 AM 35.6 °F 24.0 °F 8.6 °F 33% 29.60 in 10.0 mi SSW 23.0 mph 32.2 mph N/A   Clear
5:15 AM 33.8 °F 21.6 °F 8.6 °F 35% 29.59 in 10.0 mi SSW 23.0 mph 29.9 mph N/A   Clear
5:35 AM 33.8 °F 21.9 °F 8.6 °F 35% 29.59 in 10.0 mi SSW 21.9 mph 34.5 mph N/A   Clear
5:55 AM 33.8 °F 22.5 °F 8.6 °F 35% 29.59 in 10.0 mi SSW 19.6 mph 33.4 mph N/A   Clear
6:15 AM 33.8 °F 22.2 °F 8.6 °F 35% 29.60 in 10.0 mi SSW 20.7 mph 24.2 mph N/A   Clear
6:35 AM 33.8 °F 21.6 °F 8.6 °F 35% 29.58 in 10.0 mi SSW 23.0 mph 27.6 mph N/A   Clear
6:55 AM 33.8 °F 20.8 °F 8.6 °F 35% 29.57 in 10.0 mi SSW 26.5 mph 32.2 mph N/A   Clear
7:15 AM 33.8 °F 21.0 °F 8.6 °F 35% 29.58 in 10.0 mi SSW 25.3 mph 31.1 mph N/A   Clear
7:35 AM 33.8 °F 22.5 °F 10.4 °F 38% 29.59 in 10.0 mi SSW 19.6 mph 26.5 mph N/A   Clear
7:55 AM 33.8 °F 21.9 °F 10.4 °F 38% 29.59 in 10.0 mi SSW 21.9 mph 28.8 mph N/A   Clear
8:15 AM 33.8 °F 22.5 °F 10.4 °F 38% 29.63 in 10.0 mi SW 19.6 mph 25.3 mph N/A   Clear
8:35 AM 33.8 °F 25.8 °F 10.4 °F 38% 29.65 in 10.0 mi WSW 10.4 mph - N/A   Clear
8:55 AM 35.6 °F 25.9 °F 10.4 °F 35% 29.66 in 10.0 mi SSW 16.1 mph - N/A   Clear
9:15 AM 37.4 °F 27.8 °F 10.4 °F 33% 29.67 in 10.0 mi SW 17.3 mph 23.0 mph N/A   Clear
9:35 AM 37.4 °F 27.8 °F 10.4 °F 33% 29.68 in 10.0 mi SW 17.3 mph 21.9 mph N/A   Clear
9:55 AM 41.0 °F 33.1 °F 12.2 °F 31% 29.68 in 10.0 mi SW 15.0 mph 19.6 mph N/A   Clear
10:15 AM 41.0 °F 32.8 °F 12.2 °F 31% 29.69 in 10.0 mi SW 16.1 mph - N/A   Clear
10:35 AM 42.8 °F 36.2 °F 12.2 °F 29% 29.72 in 10.0 mi WSW 12.7 mph - N/A   Clear
10:55 AM 44.6 °F 38.8 °F 12.2 °F 27% 29.72 in 10.0 mi WSW 11.5 mph - N/A   Clear
11:15 AM 48.2 °F - 14.0 °F 25% 29.73 in 10.0 mi West 9.2 mph - N/A   Clear
11:35 AM 51.8 °F - 17.6 °F 26% 29.72 in 10.0 mi NW 8.1 mph - N/A   Clear
11:55 AM 53.6 °F - 21.2 °F 28% 29.73 in 10.0 mi NW 10.4 mph 17.3 mph N/A   Clear
12:15 PM 53.6 °F - 21.2 °F 28% 29.73 in 10.0 mi North 15.0 mph - N/A   Clear
12:35 PM 55.4 °F - 24.8 °F 31% 29.73 in 10.0 mi North 17.3 mph 24.2 mph N/A   Clear
12:55 PM 57.2 °F - 26.6 °F 31% 29.73 in 10.0 mi North 15.0 mph - N/A   Clear
1:15 PM 55.4 °F - 28.4 °F 36% 29.72 in 10.0 mi North 17.3 mph - N/A   Clear
1:35 PM 57.2 °F - 28.4 °F 33% 29.74 in 10.0 mi North 18.4 mph 23.0 mph N/A   Clear
1:55 PM 55.4 °F - 28.4 °F 36% 29.74 in 10.0 mi NNE 16.1 mph - N/A   Clear
2:15 PM 55.4 °F - 28.4 °F 36% 29.73 in 10.0 mi NNE 15.0 mph 20.7 mph N/A   Clear
2:35 PM 55.4 °F - 28.4 °F 36% 29.73 in 10.0 mi NNE 13.8 mph 19.6 mph N/A   Clear
2:55 PM 55.4 °F - 28.4 °F 36% 29.74 in 10.0 mi NNE 15.0 mph 18.4 mph N/A   Clear
3:15 PM 55.4 °F - 28.4 °F 36% 29.75 in 10.0 mi NE 12.7 mph 20.7 mph N/A   Clear
3:35 PM 55.4 °F - 28.4 °F 36% 29.76 in 10.0 mi NE 15.0 mph - N/A   Clear
3:55 PM 55.4 °F - 30.2 °F 38% 29.77 in 10.0 mi NNE 12.7 mph 18.4 mph N/A   Clear
4:15 PM 53.6 °F - 30.2 °F 41% 29.77 in 10.0 mi NE 15.0 mph - N/A   Clear
4:35 PM 53.6 °F - 30.2 °F 41% 29.78 in 10.0 mi ENE 13.8 mph - N/A   Clear
4:55 PM 51.8 °F - 28.4 °F 41% 29.78 in 10.0 mi ENE 13.8 mph - N/A   Clear
5:15 PM 51.8 °F - 28.4 °F 41% 29.79 in 10.0 mi East 12.7 mph - N/A   Clear
5:35 PM 50.0 °F - 28.4 °F 43% 29.80 in 10.0 mi ENE 10.4 mph - N/A   Clear
5:55 PM 48.2 °F - 26.6 °F 43% 29.80 in 10.0 mi East 9.2 mph - N/A   Clear
6:15 PM 46.4 °F 42.4 °F 26.6 °F 46% 29.80 in 10.0 mi East 8.1 mph - N/A   Clear
6:35 PM 46.4 °F 42.9 °F 24.8 °F 43% 29.81 in 10.0 mi East 6.9 mph - N/A   Clear
6:55 PM 44.6 °F 40.7 °F 24.8 °F 46% 29.81 in 10.0 mi East 6.9 mph - N/A   Clear
7:15 PM 44.6 °F 40.2 °F 24.8 °F 46% 29.81 in 10.0 mi East 8.1 mph - N/A   Clear
7:35 PM 44.6 °F 40.7 °F 23.0 °F 43% 29.82 in 10.0 mi East 6.9 mph - N/A   Clear
7:55 PM 42.8 °F 38.0 °F 23.0 °F 46% 29.81 in 10.0 mi ENE 8.1 mph - N/A   Clear
8:15 PM 41.0 °F 35.2 °F 23.0 °F 49% 29.80 in 10.0 mi ENE 9.2 mph - N/A   Clear
8:35 PM 42.8 °F 37.5 °F 23.0 °F 46% 29.81 in 10.0 mi NNE 9.2 mph - N/A   Clear
8:55 PM 41.0 °F 36.4 °F 23.0 °F 49% 29.83 in 10.0 mi ENE 6.9 mph - N/A   Clear
9:15 PM 39.2 °F 33.6 °F 23.0 °F 52% 29.83 in 10.0 mi NNE 8.1 mph - N/A   Clear
9:35 PM 37.4 °F 30.8 °F 23.0 °F 56% 29.84 in 10.0 mi NNE 9.2 mph - N/A   Clear
9:55 PM 37.4 °F 30.8 °F 24.8 °F 60% 29.84 in 10.0 mi NE 9.2 mph - N/A   Clear
10:15 PM 37.4 °F 30.8 °F 26.6 °F 65% 29.85 in 10.0 mi NE 9.2 mph - N/A   Clear
10:35 PM 35.6 °F 28.0 °F 26.6 °F 70% 29.84 in 10.0 mi NE 10.4 mph - N/A   Clear
10:55 PM 35.6 °F 29.2 °F 24.8 °F 65% 29.85 in 10.0 mi NE 8.1 mph - N/A   Clear
11:15 PM 35.6 °F 26.6 °F 23.0 °F 60% 29.83 in 10.0 mi NE 13.8 mph 18.4 mph N/A   Clear
11:35 PM 35.6 °F 27.1 °F 23.0 °F 60% 29.84 in 10.0 mi NE 12.7 mph - N/A   Clear
11:55 PM 33.8 °F 25.3 °F 23.0 °F 65% 29.83 in 10.0 mi NE 11.5 mph - N/A   Clear